Olbia, Italy

9:15 PM CEST on June 23, 2017 (GMT +0200)
Costa Smeralda

Weather History for LIEO - April, 2013

Change the Weather History Date:

Saturday, April 13, 2013

  Actual Average Record
Temperature  
Mean Temperature 62 °F -  
Max Temperature 73 °F 68 °F 79 °F (2016)
Min Temperature 51 °F 49 °F 39 °F (2015)
Degree Days  
Heating Degree Days 3    
Growing Degree Days 12 (Base 50)    
Moisture  
Dew Point 44 °F    
Average Humidity 55    
Maximum Humidity 82    
Minimum Humidity 29    
Precipitation  
Precipitation 0.00 in 0.06 in - ()
Sea Level Pressure  
Sea Level Pressure 30.17 in    
Wind  
Wind Speed 11 mph ()    
Max Wind Speed 20 mph    
Max Gust Speed -    
Averages and records for this station are not official NWS values.
T = Trace of Precipitation, MM = Missing Value Source: Averaged Metar Reports

Daily Weather History Graph

Daily Weather History Graph

Search for Another Location

Airport or City:

Trip Planner

Search our weather history database for the weather conditions in past years. The results will help you decide how hot, cold, wet, or windy it might be!

Date:

Astronomy

Apr. 13, 2013 Rise Set
Actual Time 6:46 AM CEST 7:59 PM CEST
Civil Twilight 6:17 AM CEST 8:27 PM CEST
Nautical Twilight 5:43 AM CEST 9:01 PM CEST
Astronomical Twilight 5:08 AM CEST 9:37 PM CEST
Moon 8:24 AM CEST (4/13) 11:10 PM CEST (4/13)
Length of Visible Light 14h 10m
Length of Day
13h 13m
Waxing Crescent, 9% of the Moon is Illuminated
Apr 13
Waxing Crescent
Apr 18
First Quarter
Apr 25
Full
May 2
Last Quarter
May 10
New

Hourly Weather History & Observations

Time (CEST) Temp. Dew Point Humidity Pressure Visibility Wind Dir Wind Speed Gust Speed Precip Events Conditions
12:20 AM 53.6 °F 48.2 °F 82% 30.06 in - SW 9.2 mph - N/A   Clear
12:50 AM 55.4 °F 48.2 °F 77% 30.06 in - SW 12.7 mph - N/A   Clear
1:20 AM 51.8 °F 46.4 °F 82% 30.09 in - SW 10.4 mph - N/A   Clear
1:50 AM 53.6 °F 46.4 °F 77% 30.09 in - SW 10.4 mph - N/A   Clear
2:20 AM 55.4 °F 46.4 °F 72% 30.09 in - SW 11.5 mph - N/A   Clear
2:50 AM 53.6 °F 46.4 °F 77% 30.09 in - SSW 12.7 mph - N/A   Clear
3:20 AM 53.6 °F 46.4 °F 77% 30.09 in - SSW 10.4 mph - N/A   Clear
3:50 AM 53.6 °F 44.6 °F 72% 30.09 in - SW 12.7 mph - N/A   Clear
4:20 AM 53.6 °F 44.6 °F 72% 30.09 in - SW 13.8 mph - N/A   Clear
4:50 AM 53.6 °F 44.6 °F 72% 30.09 in - SW 16.1 mph - N/A   Clear
5:20 AM 55.4 °F 42.8 °F 63% 30.09 in - WSW 13.8 mph - N/A   Clear
5:50 AM 55.4 °F 42.8 °F 63% 30.09 in - WSW 11.5 mph - N/A   Clear
6:20 AM 55.4 °F 42.8 °F 63% 30.12 in - WSW 12.7 mph - N/A   Clear
6:50 AM 53.6 °F 42.8 °F 67% 30.12 in - WSW 11.5 mph - N/A   Clear
7:20 AM 51.8 °F 44.6 °F 76% 30.12 in - SW 11.5 mph - N/A   Clear
7:50 AM 55.4 °F 44.6 °F 67% 30.15 in - SW 15.0 mph - N/A   Clear
8:20 AM 57.2 °F 44.6 °F 63% 30.15 in - SW 13.8 mph - N/A   Clear
8:50 AM 59.0 °F 44.6 °F 59% 30.15 in - SW 18.4 mph - N/A   Clear
9:20 AM 60.8 °F 44.6 °F 55% 30.15 in - SW 17.3 mph - N/A   Clear
9:50 AM 62.6 °F 44.6 °F 52% 30.18 in - SW 18.4 mph - N/A   Clear
10:20 AM 64.4 °F 46.4 °F 52% 30.18 in - SW 17.3 mph - N/A   Clear
10:50 AM 66.2 °F 44.6 °F 46% 30.18 in - SW 19.6 mph - N/A   Clear
11:20 AM 66.2 °F 44.6 °F 46% 30.18 in - SW 18.4 mph - N/A   Clear
11:50 AM 68.0 °F 46.4 °F 46% 30.18 in - SW 15.0 mph - N/A   Clear
12:20 PM 69.8 °F 44.6 °F 40% 30.21 in - SW 12.7 mph - N/A   Clear
12:50 PM 69.8 °F 44.6 °F 40% 30.18 in - SW 13.8 mph - N/A   Clear
1:20 PM 71.6 °F 42.8 °F 35% 30.18 in - SW 12.7 mph - N/A   Clear
1:50 PM 73.4 °F 46.4 °F 38% 30.18 in - SSW 11.5 mph - N/A   Clear
2:20 PM 73.4 °F 39.2 °F 29% 30.18 in - SW 11.5 mph - N/A   Clear
2:50 PM 73.4 °F 42.8 °F 33% 30.18 in - West 11.5 mph - N/A   Clear
3:20 PM 73.4 °F 41.0 °F 31% 30.18 in - West 12.7 mph - N/A   Clear
3:50 PM 73.4 °F 39.2 °F 29% 30.18 in - West 11.5 mph - N/A   Clear
4:20 PM 73.4 °F 41.0 °F 31% 30.18 in - WNW 11.5 mph - N/A   Clear
4:50 PM 73.4 °F 39.2 °F 29% 30.18 in - WNW 11.5 mph - N/A   Clear
5:20 PM 73.4 °F 39.2 °F 29% 30.18 in - WNW 11.5 mph - N/A   Clear
5:50 PM 73.4 °F 39.2 °F 29% 30.18 in - WNW 11.5 mph - N/A   Clear
6:20 PM 71.6 °F 41.0 °F 33% 30.18 in - WNW 11.5 mph - N/A   Clear
6:50 PM 71.6 °F 41.0 °F 33% 30.21 in - West 12.7 mph - N/A   Clear
7:20 PM 69.8 °F 41.0 °F 35% 30.21 in - West 10.4 mph - N/A   Clear
7:50 PM 66.2 °F 46.4 °F 49% 30.21 in - North 5.8 mph - N/A   Clear
8:20 PM 62.6 °F 48.2 °F 59% 30.24 in - Variable 2.3 mph - N/A   Clear
8:50 PM 60.8 °F 48.2 °F 63% 30.24 in - Variable 1.2 mph - N/A   Clear
9:20 PM 60.8 °F 46.4 °F 59% 30.24 in - Variable 2.3 mph - N/A   Clear
9:50 PM 57.2 °F 48.2 °F 72% 30.27 in - WSW 10.4 mph - N/A   Clear
10:20 PM 55.4 °F 46.4 °F 72% 30.27 in - SSW 9.2 mph - N/A   Clear
10:50 PM 57.2 °F 46.4 °F 67% 30.27 in - Variable 3.5 mph - N/A   Clear
11:20 PM 55.4 °F 46.4 °F 72% 30.27 in - SSW 5.8 mph - N/A   Clear
11:50 PM 53.6 °F 46.4 °F 77% 30.27 in - SW 5.8 mph - N/A   Clear